Погода в Старом Утчане

Россия / Удмуртская Республика     56°09′44″N   52°20′17″E
темп.,
°C
ветер,
м/с
пор.,
м/с
влажн.,
%
обл.,
%
осадки,
мм/ч
давл.,
гПа
погр.,
м
22 апреля, чт
чт2201:00+3ююв81791100 1.7 1025865
04:00+2ююв71597100 6.1 1025661
07:00+2ю61398100 3.2 1025601
10:00+3ю61296100 3.7 1026636
13:00+5ю61090100 0.0 1026606
16:00+6ю51084100 0.0 1027628
19:00+6ю5108181 0.0 1026506
22:00+4ююв5109393 0.0 1027296
23 апреля, пт
пт2301:00+2ю499623 0.0 1027226
04:00+3ю4995100 0.0 1027272
07:00+3ю589376 0.0 1027296
10:00+7ю457882 0.0 1028542
13:00+10ююв346685 0.0 1027945
16:00+12юв445824 0.0 10261183
19:00+10вюв587264 0.0 1025370
22:00+6в4789100 0.0 1025146
24 апреля, сб
сб2401:00+4в4893100 0.0 1023209
04:00+4всв4994100 0.0 1021234
07:00+4всв5992100 0.0 1019284
10:00+6в4996100 0.3 1017528
13:00+6вюв4995100 0.8 1016514
16:00+6в4797100 1.9 1015342
19:00+6вюв3796100 0.7 1013257
22:00+6вюв3696100 0.8 1012220
25 апреля, вс
вс2501:00+5ююв2395100 0.3 1011100
04:00+5юв3697100 0.3 1009208
07:00+6юв5993100 0.0 1007357
10:00+4юз61094100 4.4 1006674
13:00+8зюз9136585 0.5 10081652
16:00+10юз8125174 0.9 10102152
19:00+6зюз613695 0.6 1012604
22:00+4ююз3108339 0.6 1013232
26 апреля, пн
пн2601:00+4юз41084100 0.1 1013264
04:00+3ююз489078 0.1 1013221
07:00+4юз59840 0.0 1014379
10:00+7зюз68565 0.0 10141384
13:00+8юз784898 0.1 10141838
16:00+10зюз574499 0.1 10132110
19:00+8юз48573 0.0 1012327
22:00+5ю226112 0.0 101120